Le nostre stazioni meteo in Italia

Pubblicità
Il mio iltempo24.it
Reggio Calabria, Italia (16422): Temperatura & dewpoint: 16.10.2018 08:00:00 - 22.10.2018 08:00:00 (CEST)Reggio Calabria, Italia (16422): velocità del vento: 16.10.2018 08:00:00 - 22.10.2018 08:00:00 (CEST)Reggio Calabria, Italia (16422): direzione del vento: 16.10.2018 08:00:00 - 22.10.2018 08:00:00 (CEST)Reggio Calabria, Italia (16422): visibility: 16.10.2018 08:00:00 - 22.10.2018 08:00:00 (CEST)
Data & Tempo tt [°C] td [°C] ff [km/h] ff [kn] dd vv [km]
22.10.2018 08:00:00 16,0 15,0 16 9 ENE 7
22.10.2018 07:00:00 19,0 15,0 11 6 OSO 10
22.10.2018 06:00:00 19,0 15,0 13 7 S 10
22.10.2018 05:00:00 - - - - - -
22.10.2018 04:00:00 - - - - - -
22.10.2018 03:00:00 - - - - - -
22.10.2018 02:00:00 - - - - - -
22.10.2018 01:00:00 - - - - - -
22.10.2018 00:00:00 18,0 14,0 5 3 ENE 10
21.10.2018 23:00:00 19,0 14,0 8 4 NE 10
21.10.2018 22:00:00 18,0 15,0 9 5 NE 10
21.10.2018 21:00:00 19,0 15,0 9 5 NE 10
21.10.2018 20:00:00 20,0 17,0 8 4 NE 10
21.10.2018 19:00:00 21,0 17,0 8 4 SO 10
21.10.2018 18:00:00 22,0 17,0 13 7 SSO 10
21.10.2018 17:00:00 22,0 18,0 16 9 S 10
21.10.2018 16:00:00 23,0 18,0 16 9 SSO 10
21.10.2018 15:00:00 23,0 17,0 21 11 SSO 10
21.10.2018 14:00:00 24,0 17,0 21 11 SSO 10
21.10.2018 13:00:00 24,0 17,0 18 10 SSO 10
21.10.2018 12:00:00 - - - - - -
21.10.2018 11:00:00 23,0 16,0 4 2 - 10
21.10.2018 10:00:00 22,0 15,0 4 2 - 10
21.10.2018 09:00:00 21,0 15,0 4 2 - 10
21.10.2018 08:00:00 17,0 14,0 9 5 NE 10
21.10.2018 07:00:00 16,0 13,0 11 6 NE 10
21.10.2018 06:00:00 17,0 13,0 8 4 ENE 10
21.10.2018 05:00:00 - - - - - -
21.10.2018 04:00:00 - - - - - -
21.10.2018 03:00:00 - - - - - -
21.10.2018 02:00:00 - - - - - -
21.10.2018 01:00:00 - - - - - -
21.10.2018 00:00:00 19,0 14,0 8 4 NNE 10
20.10.2018 23:00:00 18,0 14,0 8 4 ENE 10
20.10.2018 22:00:00 18,0 14,0 9 5 ENE 10
20.10.2018 21:00:00 19,0 15,0 8 4 ENE 10
20.10.2018 20:00:00 19,0 16,0 8 4 NE 10
20.10.2018 19:00:00 21,0 17,0 13 7 N 10
20.10.2018 18:00:00 23,0 15,0 11 6 NNO 10
20.10.2018 17:00:00 24,0 18,0 9 5 O 10
20.10.2018 16:00:00 24,0 18,0 9 5 O 10
20.10.2018 15:00:00 24,0 18,0 9 5 SO 10
20.10.2018 14:00:00 24,0 18,0 9 5 SO 10
20.10.2018 13:00:00 24,0 18,0 11 6 SO 10
20.10.2018 12:00:00 24,0 18,0 15 8 OSO 10
20.10.2018 11:00:00 25,0 16,0 8 4 N 10
20.10.2018 10:00:00 24,0 17,0 5 3 NE 10
20.10.2018 09:00:00 22,0 17,0 5 3 NE 10
20.10.2018 08:00:00 18,0 16,0 11 6 NE 10
20.10.2018 07:00:00 18,0 15,0 9 5 NNE 10
20.10.2018 06:00:00 18,0 15,0 13 7 NE 10
20.10.2018 05:00:00 - - - - - -
20.10.2018 04:00:00 - - - - - -
20.10.2018 03:00:00 - - - - - -
20.10.2018 02:00:00 - - - - - -
20.10.2018 01:00:00 - - - - - -
20.10.2018 00:00:00 20,0 17,0 9 5 ENE 10
19.10.2018 23:00:00 21,0 17,0 8 4 NNE 10
19.10.2018 22:00:00 21,0 17,0 11 6 NE 10
19.10.2018 21:00:00 21,0 18,0 8 4 NNE 10
19.10.2018 20:00:00 21,0 18,0 8 4 ENE 10
19.10.2018 19:00:00 22,0 18,0 8 4 ENE 10
19.10.2018 18:00:00 23,0 19,0 16 9 O 10
19.10.2018 17:00:00 24,0 19,0 22 12 O 10
19.10.2018 16:00:00 25,0 19,0 22 12 SSO 10
19.10.2018 15:00:00 26,0 19,0 22 12 SSO 10
19.10.2018 14:00:00 25,0 18,0 26 14 SO 10
19.10.2018 13:00:00 24,0 18,0 11 6 NO 10
19.10.2018 12:00:00 23,0 19,0 11 6 N 10
19.10.2018 11:00:00 23,0 19,0 13 7 NE 10
19.10.2018 10:00:00 21,0 19,0 22 12 SO 10
19.10.2018 09:00:00 21,0 18,0 9 5 - 10
19.10.2018 08:00:00 20,0 17,0 4 2 - 10
19.10.2018 07:00:00 20,0 17,0 5 3 SE 10
19.10.2018 06:00:00 20,0 17,0 13 7 NE 10
19.10.2018 05:00:00 - - - - - -
19.10.2018 04:00:00 - - - - - -
19.10.2018 03:00:00 - - - - - -
19.10.2018 02:00:00 - - - - - -
19.10.2018 01:00:00 - - - - - -
19.10.2018 00:00:00 21,0 18,0 5 3 NNE 10
18.10.2018 23:00:00 22,0 17,0 9 5 NE 10
18.10.2018 22:00:00 22,0 18,0 16 9 N 10
18.10.2018 21:00:00 22,0 17,0 9 5 NO 10
18.10.2018 20:00:00 22,0 18,0 15 8 - 10
18.10.2018 19:00:00 23,0 18,0 28 15 O 10
18.10.2018 18:00:00 24,0 15,0 11 6 NO 10
18.10.2018 17:00:00 25,0 15,0 9 5 SE 10
18.10.2018 16:00:00 24,0 17,0 24 13 SSO 10
18.10.2018 15:00:00 25,0 16,0 26 14 S 10
18.10.2018 14:00:00 25,0 18,0 22 12 SSO 10
18.10.2018 13:00:00 25,0 16,0 26 14 SO 10
18.10.2018 12:00:00 24,0 16,0 28 15 SSO 10
18.10.2018 11:00:00 25,0 17,0 26 14 S 10
18.10.2018 10:00:00 24,0 16,0 34 18 S 10
18.10.2018 09:00:00 23,0 16,0 31 17 S 10
18.10.2018 08:00:00 22,0 17,0 37 20 S 10
18.10.2018 07:00:00 20,0 16,0 9 5 - 10
18.10.2018 06:00:00 21,0 17,0 15 8 - 10
18.10.2018 05:00:00 - - - - - -
18.10.2018 04:00:00 - - - - - -
18.10.2018 03:00:00 - - - - - -
18.10.2018 02:00:00 - - - - - -
18.10.2018 01:00:00 - - - - - -
18.10.2018 00:00:00 22,0 18,0 21 11 SSO 10
17.10.2018 23:00:00 22,0 17,0 18 10 S 10
17.10.2018 22:00:00 22,0 17,0 28 15 SSO 10
17.10.2018 21:00:00 22,0 17,0 21 11 S 10
17.10.2018 20:00:00 22,0 18,0 21 11 S 10
17.10.2018 19:00:00 22,0 19,0 24 13 S 10
17.10.2018 18:00:00 23,0 18,0 18 10 S 10
17.10.2018 17:00:00 24,0 19,0 24 13 SSO 10
17.10.2018 16:00:00 25,0 19,0 28 15 S 10
17.10.2018 15:00:00 25,0 18,0 28 15 S 10
17.10.2018 14:00:00 25,0 19,0 28 15 S 10
17.10.2018 13:00:00 25,0 19,0 26 14 S 10
17.10.2018 12:00:00 26,0 18,0 21 11 S 10
17.10.2018 11:00:00 25,0 18,0 18 10 S 10
17.10.2018 10:00:00 24,0 17,0 13 7 S 10
17.10.2018 09:00:00 23,0 16,0 11 6 S 10
17.10.2018 08:00:00 22,0 16,0 9 5 S 10
17.10.2018 07:00:00 21,0 18,0 11 6 S 10
17.10.2018 06:00:00 21,0 19,0 11 6 S 10
17.10.2018 05:00:00 - - - - - -
17.10.2018 04:00:00 - - - - - -
17.10.2018 03:00:00 - - - - - -
17.10.2018 02:00:00 - - - - - -
17.10.2018 01:00:00 - - - - - -
17.10.2018 00:00:00 18,0 16,0 5 3 ENE 10
16.10.2018 23:00:00 19,0 17,0 5 3 ENE 10
16.10.2018 22:00:00 19,0 18,0 8 4 E 10
16.10.2018 21:00:00 19,0 18,0 5 3 ENE 10
16.10.2018 20:00:00 20,0 18,0 5 3 ESE 10
16.10.2018 19:00:00 22,0 19,0 18 10 SSO 10
16.10.2018 18:00:00 22,0 19,0 21 11 S 10
16.10.2018 17:00:00 23,0 18,0 26 14 SSO 10
16.10.2018 16:00:00 24,0 18,0 24 13 SSO 10
16.10.2018 15:00:00 24,0 18,0 26 14 SSO 10
16.10.2018 14:00:00 24,0 19,0 29 16 SSO 10
16.10.2018 13:00:00 25,0 19,0 24 13 SSO 10
16.10.2018 12:00:00 25,0 18,0 16 9 S 10
16.10.2018 11:00:00 24,0 19,0 21 11 S 10
16.10.2018 10:00:00 23,0 18,0 16 9 S 10
16.10.2018 09:00:00 22,0 17,0 4 2 - 10
16.10.2018 08:00:00 18,0 16,0 9 5 ENE 10

tt = Temperatura
td = dewpoint
ff = velocità del vento
dd = direzione del vento
vv = visibility

Stazioni seguenti

WeatherPro
AMSI
MeteoEarth